Total_Precipitation_Accumulation
0.08 0.07 0.07 0.05 0.04 0.03 0.02 0.03 0.03 0.02 0.01 0.01 0.00 0.00 0.00 0.00 0.00 0.00 0.00 0.00 0.00 0.00 0.00 0.00 0.00 0.00 0.00 0.00 0.00 0.00 0.00 0.00 0.00 0.00 0.00 0.00 0.00 0.00 0.00 0.00 0.00 0.00 0.00 0.00 0.00 0.01 0.00
0.08 0.06 0.05 0.05 0.04 0.03 0.03 0.03 0.02 0.02 0.01 0.01 0.01 0.00 0.00 0.00 0.00 0.00 0.00 0.00 0.00 0.00 0.00 0.00 0.00 0.00 0.00 0.00 0.00 0.00 0.00 0.00 0.00 0.00 0.00 0.00 0.00 0.00 0.00 0.00 0.00 0.00 0.00 0.00 0.00 0.00 0.00
0.08 0.07 0.05 0.05 0.04 0.03 0.02 0.02 0.02 0.02 0.02 0.01 0.01 0.00 0.00 0.01 0.01 0.01 0.01 0.00 0.00 0.00 0.00 0.00 0.00 0.00 0.00 0.00 0.00 0.00 0.00 0.00 0.00 0.00 0.00 0.00 0.00 0.00 0.00 0.00 0.00 0.00 0.00 0.00 0.04 0.02 0.00
0.08 0.08 0.07 0.06 0.06 0.05 0.03 0.03 0.02 0.01 0.01 0.01 0.01 0.01 0.00 0.00 0.01 0.00 0.00 0.00 0.00 0.00 0.00 0.00 0.00 0.00 0.00 0.00 0.00 0.00 0.00 0.00 0.00 0.00 0.00 0.00 0.00 0.00 0.00 0.00 0.00 0.00 0.00 0.00 0.05 0.01 0.00
0.10 0.09 0.07 0.06 0.06 0.06 0.05 0.04 0.03 0.02 0.01 0.02 0.00 0.00 0.00 0.00 0.00 0.01 0.00 0.00 0.00 0.00 0.00 0.00 0.00 0.00 0.00 0.00 0.00 0.00 0.00 0.00 0.00 0.00 0.00 0.00 0.00 0.00 0.00 0.01 0.00 0.00 0.00 0.00 0.00 0.00 0.00
0.11 0.09 0.07 0.06 0.06 0.06 0.06 0.05 0.04 0.03 0.02 0.01 0.01 0.00 0.00 0.00 0.01 0.01 0.00 0.00 0.00 0.00 0.00 0.00 0.01 0.01 0.00 0.00 0.00 0.00 0.00 0.01 0.01 0.00 0.00 0.00 0.00 0.00 0.00 0.00 0.00 0.00 0.00 0.00 0.00 0.00 0.00
0.09 0.08 0.08 0.06 0.06 0.05 0.05 0.06 0.06 0.05 0.03 0.02 0.02 0.01 0.00 0.01 0.01 0.02 0.00 0.00 0.00 0.00 0.00 0.00 0.00 0.00 0.00 0.00 0.00 0.00 0.00 0.00 0.00 0.00 0.02 0.00 0.00 0.00 0.00 0.00 0.00 0.00 0.00 0.00 0.00 0.00 0.00
0.08 0.08 0.07 0.07 0.07 0.06 0.06 0.07 0.08 0.06 0.05 0.02 0.02 0.01 0.01 0.01 0.03 0.02 0.00 0.00 0.00 0.00 0.00 0.00 0.00 0.00 0.00 0.00 0.00 0.00 0.00 0.00 0.00 0.00 0.01 0.00 0.00 0.00 0.00 0.00 0.00 0.00 0.00 0.00 0.00 0.00 0.00
0.18 0.14 0.10 0.09 0.08 0.08 0.08 0.09 0.09 0.08 0.06 0.04 0.02 0.01 0.01 0.02 0.04 0.01 0.01 0.00 0.00 0.00 0.00 0.00 0.00 0.00 0.00 0.00 0.00 0.00 0.00 0.00 0.00 0.00 0.00 0.01 0.01 0.00 0.00 0.00 0.00 0.00 0.00 0.00 0.00 0.00 0.00
0.20 0.17 0.15 0.13 0.10 0.08 0.06 0.06 0.06 0.06 0.05 0.04 0.03 0.01 0.02 0.04 0.02 0.00 0.00 0.00 0.00 0.00 0.00 0.00 0.00 0.00 0.00 0.00 0.00 0.00 0.00 0.00 0.00 0.00 0.00 0.02 0.00 0.00 0.00 0.00 0.00 0.01 0.00 0.00 0.00 0.00 0.02
0.15 0.13 0.12 0.11 0.11 0.11 0.08 0.07 0.07 0.07 0.06 0.05 0.04 0.02 0.03 0.06 0.01 0.00 0.00 0.00 0.00 0.02 0.01 0.00 0.00 0.00 0.00 0.00 0.00 0.00 0.00 0.00 0.00 0.00 0.00 0.01 0.00 0.00 0.00 0.00 0.00 0.01 0.00 0.00 0.00 0.00 0.01
0.17 0.15 0.16 0.16 0.15 0.15 0.13 0.10 0.08 0.07 0.05 0.06 0.05 0.04 0.07 0.05 0.02 0.00 0.01 0.02 0.11 0.09 0.03 0.00 0.00 0.00 0.00 0.00 0.00 0.00 0.00 0.00 0.00 0.00 0.00 0.01 0.01 0.01 0.01 0.00 0.00 0.00 0.00 0.00 0.00 0.00 0.00
0.35 0.26 0.23 0.19 0.16 0.15 0.14 0.13 0.13 0.11 0.09 0.10 0.09 0.07 0.11 0.05 0.02 0.01 0.04 0.16 0.21 0.07 0.00 0.00 0.00 0.00 0.00 0.00 0.00 0.00 0.00 0.00 0.00 0.00 0.00 0.00 0.00 0.01 0.01 0.00 0.00 0.00 0.00 0.01 0.11 0.05 0.02
0.46 0.37 0.25 0.17 0.15 0.13 0.13 0.14 0.12 0.13 0.16 0.15 0.13 0.15 0.12 0.05 0.00 0.07 0.18 0.53 0.28 0.00 0.00 0.00 0.00 0.00 0.01 0.01 0.00 0.00 0.00 0.00 0.00 0.00 0.00 0.00 0.00 0.00 0.00 0.00 0.02 0.01 0.00 0.04 0.09 0.06 0.06
0.64 0.56 0.42 0.29 0.25 0.22 0.20 0.19 0.18 0.17 0.18 0.21 0.31 0.22 0.20 0.05 0.05 0.19 0.43 0.59 0.14 0.00 0.00 0.00 0.00 0.00 0.01 0.04 0.04 0.02 0.03 0.01 0.00 0.00 0.00 0.00 0.01 0.01 0.00 0.00 0.00 0.01 0.02 0.00 0.00 0.02 0.04
0.64 0.63 0.49 0.40 0.32 0.23 0.21 0.21 0.20 0.23 0.32 0.37 0.42 0.40 0.13 0.03 0.18 0.49 0.70 0.20 0.01 0.00 0.00 0.00 0.00 0.00 0.01 0.02 0.03 0.02 0.06 0.07 0.04 0.02 0.00 0.02 0.07 0.03 0.00 0.00 0.00 0.00 0.00 0.00 0.00 0.00 0.02
0.66 0.65 0.58 0.51 0.50 0.42 0.31 0.28 0.32 0.34 0.39 0.66 0.77 0.81 0.14 0.11 0.65 1.04 0.62 0.05 0.00 0.00 0.00 0.00 0.00 0.00 0.00 0.01 0.02 0.05 0.02 0.11 0.08 0.02 0.00 0.00 0.03 0.10 0.00 0.00 0.00 0.00 0.00 0.00 0.00 0.00 0.04
0.66 0.64 0.65 0.55 0.49 0.49 0.55 0.41 0.39 0.48 0.66 1.29 1.44 1.12 0.39 0.40 0.81 0.50 0.17 0.02 0.00 0.00 0.00 0.00 0.00 0.00 0.01 0.01 0.01 0.02 0.07 0.07 0.07 0.09 0.03 0.00 0.00 0.02 0.02 0.01 0.01 0.00 0.00 0.01 0.02 0.02 0.01
0.69 0.63 0.66 0.60 0.52 0.49 0.55 0.63 0.50 0.57 1.01 1.51 1.80 0.97 1.05 0.91 0.88 0.25 0.06 0.03 0.00 0.00 0.00 0.00 0.00 0.00 0.00 0.01 0.03 0.01 0.07 0.02 0.00 0.06 0.11 0.02 0.03 0.02 0.03 0.09 0.04 0.01 0.00 0.00 0.00 0.00 0.01
0.86 0.74 0.63 0.71 0.61 0.57 0.58 0.68 0.75 0.72 1.14 1.91 2.09 1.39 1.71 1.36 0.39 0.25 0.25 0.20 0.11 0.01 0.00 0.00 0.00 0.00 0.02 0.02 0.04 0.06 0.04 0.06 0.00 0.00 0.04 0.07 0.07 0.03 0.03 0.04 0.04 0.01 0.02 0.02 0.01 0.00 0.00
0.89 0.88 0.80 0.74 0.76 0.74 0.66 0.73 0.87 0.98 1.48 2.96 2.72 0.86 0.59 0.88 0.63 0.22 0.18 0.20 0.14 0.09 0.03 0.01 0.00 0.02 0.03 0.04 0.03 0.03 0.10 0.09 0.07 0.02 0.01 0.12 0.13 0.01 0.00 0.00 0.00 0.00 0.00 0.01 0.04 0.02 0.00
0.79 0.81 0.85 0.80 0.85 0.88 0.89 0.82 0.92 1.31 2.12 4.08 2.37 0.42 0.25 0.16 0.16 0.28 0.30 0.18 0.13 0.08 0.12 0.08 0.01 0.00 0.02 0.05 0.03 0.03 0.08 0.27 0.21 0.22 0.17 0.15 0.12 0.02 0.00 0.00 0.00 0.01 0.00 0.00 0.00 0.02 0.00
0.76 0.76 0.81 0.77 0.84 0.86 0.97 0.97 1.13 1.66 3.02 4.85 1.74 0.27 0.46 0.29 0.21 0.34 0.26 0.14 0.14 0.09 0.06 0.03 0.05 0.05 0.05 0.06 0.06 0.11 0.09 0.14 0.27 0.43 0.43 0.27 0.19 0.10 0.04 0.00 0.01 0.06 0.00 0.00 0.00 0.00 0.01
0.75 0.82 0.83 0.83 0.86 0.89 0.94 1.07 1.23 1.81 2.66 2.63 0.81 0.39 0.77 0.57 0.20 0.10 0.08 0.13 0.14 0.15 0.13 0.04 0.04 0.08 0.05 0.05 0.16 0.22 0.17 0.20 0.14 0.12 0.31 0.29 0.31 0.26 0.10 0.04 0.21 0.06 0.00 0.00 0.00 0.00 0.00
0.75 0.75 0.86 0.88 0.95 0.94 1.01 1.00 1.28 1.68 1.88 1.64 0.75 0.59 0.76 0.45 0.17 0.08 0.04 0.06 0.09 0.07 0.08 0.08 0.05 0.08 0.21 0.24 0.46 0.36 0.31 0.22 0.17 0.08 0.04 0.16 0.28 0.39 0.25 0.16 0.11 0.01 0.00 0.00 0.01 0.01 0.01
0.72 0.69 0.82 0.82 0.81 0.84 0.99 1.13 1.03 1.42 1.82 1.69 1.15 0.88 1.08 0.83 0.18 0.06 0.06 0.04 0.09 0.14 0.17 0.09 0.05 0.14 0.34 0.47 0.62 0.50 0.41 0.20 0.14 0.16 0.09 0.07 0.12 0.35 0.34 0.34 0.12 0.02 0.02 0.02 0.03 0.05 0.04
0.62 0.60 0.68 0.77 0.74 0.76 0.76 0.92 0.93 1.03 1.76 2.25 1.71 1.29 1.44 1.32 0.32 0.11 0.11 0.05 0.03 0.12 0.36 0.22 0.28 0.44 0.64 0.73 0.49 0.28 0.12 0.24 0.35 0.31 0.25 0.35 0.34 0.29 0.23 0.31 0.08 0.02 0.04 0.11 0.24 0.19 0.03
0.55 0.52 0.62 0.62 0.66 0.67 0.61 0.79 0.78 0.83 1.27 2.41 2.35 1.54 1.58 1.33 0.38 0.29 0.15 0.08 0.05 0.10 0.31 0.37 0.53 0.53 0.66 0.73 0.42 0.21 0.09 0.10 0.18 0.38 0.38 0.31 0.49 0.44 0.44 0.40 0.13 0.07 0.16 0.32 0.27 0.10 0.06
0.52 0.49 0.55 0.53 0.55 0.66 0.57 0.68 0.67 0.69 1.02 2.01 3.03 2.22 1.42 1.86 0.90 0.32 0.24 0.09 0.04 0.03 0.18 0.47 0.48 0.51 0.40 0.42 0.33 0.29 0.23 0.17 0.12 0.20 0.49 0.29 0.23 0.27 0.27 0.22 0.10 0.04 0.09 0.16 0.11 0.11 0.05